STARLINK-1936 (46772 NORAD) Tracking and Keplerian Element Data
This shows tracking and keplerian element data for the satellite.
Feedback or suggestion? Click here.
Element | Value |
Catalog | 46772 |
Name | STARLINK-1936 |
Epoch Orbit | 179 |
Epoch Day | 17.91667824 |
Epoch Year | 2021 |
RAAN | 121.7718 |
Inclination | 53.0545 |
Eccentricity | 0.000162 |
Argument of Perigee | 85.6012 |
Mean Anonmoly | 228.8099 |
Mean Motion | 15.06398167 |
Decay Rate | -0.00038387 |
L1 | 1 46772U 20074AK 21017.91667824 -.00038387 00000-0 -25722-2 0 9994 |
L2 | 2 46772 53.0545 121.7718 0001620 85.6012 228.8099 15.06398167 1799 |
Live tracking and technical data element details for STARLINK-1936 (NORAD 46772). STARLINK-1936 can be tracked NOW for your location showing map with azimuth and elevation plus other details from your city location.
Track the satellite on the map from your city or location and see movement details for azimuth, elevation, latitude, longitude, range, height, and movement on the map or in text.
IsCatalogInMostPopularTable: catalog: 46772, numindb: 25
Update: records affected: 1
GetName: 46772 STARLINK-1936
Hit Count: updated at: Mon, 18 Jan 2021 15:58:52 GMT